Hourly Weather Abzakovo

Today, 29 July, Thursday

Time Temperature Precipitation Wind Pressure Humidity
00:00 +9°C° 0 mm 1 mps 713 mmHg 80%
01:00 +8°C° 0 mm 1 mps 713 mmHg 81%
02:00 +8°C° 0 mm 1 mps 713 mmHg 82%
03:00 +8°C° 0 mm 1 mps 713 mmHg 82%
04:00 +7°C° 0 mm 1 mps 713 mmHg 84%
05:00 +9°C° 0 mm 1 mps 713 mmHg 76%
06:00 +11°C° 0 mm 1 mps 713 mmHg 69%
07:00 +13°C° 0 mm 1 mps 713 mmHg 62%
08:00 +15°C° 0 mm 2 mps 713 mmHg 57%
09:00 +17°C° 0 mm 2 mps 713 mmHg 51%
10:00 +18°C° 0 mm 3 mps 713 mmHg 45%
11:00 +20°C° 0 mm 3 mps 713 mmHg 42%
12:00 +21°C° 0 mm 4 mps 713 mmHg 39%
13:00 +22°C° 0 mm 4 mps 713 mmHg 36%
14:00 +22°C° 0 mm 4 mps 713 mmHg 36%
15:00 +22°C° 0 mm 4 mps 713 mmHg 35%
16:00 +22°C° 0 mm 4 mps 713 mmHg 34%
17:00 +21°C° 0 mm 3 mps 712 mmHg 42%
18:00 +19°C° 0 mm 2 mps 712 mmHg 50%
19:00 +19°C° 0 mm 1 mps 712 mmHg 58%
20:00 +16°C° 0 mm 1 mps 712 mmHg 58%
21:00 +15°C° 0 mm 1 mps 712 mmHg 59%
22:00 +14°C° 0 mm 1 mps 712 mmHg 60%
23:00 +13°C° 0 mm 1 mps 712 mmHg 59%

Tomorrow, 30 July, Friday

Time Temperature Precipitation Wind Pressure Humidity
00:00 +13°C° 0 mm 1 mps 712 mmHg 58%
01:00 +13°C° 0 mm 1 mps 711 mmHg 58%
02:00 +13°C° 0 mm 1 mps 711 mmHg 58%
03:00 +13°C° 0 mm 1 mps 711 mmHg 59%
04:00 +13°C° 0 mm 1 mps 711 mmHg 60%
05:00 +14°C° 0 mm 1 mps 711 mmHg 60%
06:00 +15°C° 0 mm 2 mps 711 mmHg 60%
07:00 +16°C° 0 mm 2 mps 711 mmHg 60%
08:00 +17°C° 0 mm 3 mps 711 mmHg 60%
09:00 +18°C° 0 mm 4 mps 711 mmHg 60%
10:00 +20°C° 0 mm 6 mps 710 mmHg 59%
11:00 +20°C° 0 mm 5 mps 710 mmHg 57%
12:00 +19°C° 0 mm 5 mps 710 mmHg 55%
13:00 +19°C° 0 mm 4 mps 710 mmHg 53%
14:00 +21°C° 0 mm 5 mps 709 mmHg 51%
15:00 +23°C° 0 mm 5 mps 709 mmHg 50%
16:00 +26°C° 0 mm 5 mps 709 mmHg 48%
17:00 +25°C° 0 mm 5 mps 709 mmHg 57%
18:00 +22°C° 0 mm 4 mps 709 mmHg 66%
19:00 +21°C° 0 mm 4 mps 709 mmHg 74%
20:00 +20°C° 0 mm 3 mps 709 mmHg 79%
21:00 +18°C° 0 mm 2 mps 709 mmHg 84%
22:00 +17°C° 0 mm 2 mps 709 mmHg 90%
23:00 +16°C° 0 mm 1 mps 710 mmHg 91%

Day after tomorrow, 31 July, Saturday

Time Temperature Precipitation Wind Pressure Humidity
00:00 +16°C° 0 mm 1 mps 710 mmHg 92%
01:00 +15°C° 0 mm 1 mps 710 mmHg 94%
02:00 +15°C° 0 mm 1 mps 710 mmHg 94%
03:00 +15°C° 0 mm 1 mps 710 mmHg 94%
04:00 +15°C° 0 mm 1 mps 710 mmHg 94%
05:00 +18°C° 0 mm 1 mps 711 mmHg 88%
06:00 +19°C° 0 mm 1 mps 711 mmHg 83%
07:00 +21°C° 0 mm 1 mps 712 mmHg 78%
08:00 +22°C° 0.1 mm 1 mps 712 mmHg 71%
09:00 +24°C° 0.1 mm 2 mps 712 mmHg 65%
10:00 +26°C° 0.1 mm 2 mps 712 mmHg 58%
11:00 +27°C° 0.3 mm 2 mps 712 mmHg 57%
12:00 +27°C° 0.3 mm 2 mps 712 mmHg 55%
13:00 +28°C° 0.3 mm 2 mps 711 mmHg 53%
14:00 +27°C° 0.2 mm 2 mps 711 mmHg 60%
15:00 +25°C° 0.2 mm 3 mps 711 mmHg 66%
16:00 +24°C° 0.2 mm 3 mps 711 mmHg 72%
17:00 +22°C° 0.7 mm 3 mps 711 mmHg 78%
18:00 +21°C° 0.7 mm 2 mps 711 mmHg 84%
19:00 +20°C° 0.7 mm 2 mps 711 mmHg 91%
20:00 +19°C° 0.5 mm 2 mps 711 mmHg 92%
21:00 +19°C° 0.5 mm 1 mps 711 mmHg 93%
22:00 +19°C° 0.5 mm 1 mps 711 mmHg 93%
23:00 +18°C° 0.1 mm 1 mps 711 mmHg 93%

1 August, Sunday

Time Temperature Precipitation Wind Pressure Humidity
00:00 +18°C° 0.1 mm 1 mps 711 mmHg 92%
01:00 +17°C° 0.1 mm 2 mps 711 mmHg 91%
02:00 +17°C° 0 mm 2 mps 711 mmHg 90%
03:00 +18°C° 0 mm 1 mps 710 mmHg 89%
04:00 +18°C° 0 mm 1 mps 710 mmHg 88%
05:00 +19°C° 0 mm 1 mps 710 mmHg 87%
06:00 +19°C° 0 mm 1 mps 711 mmHg 86%
07:00 +20°C° 0 mm 1 mps 711 mmHg 85%
08:00 +21°C° 0 mm 2 mps 711 mmHg 78%
09:00 +22°C° 0 mm 3 mps 712 mmHg 72%
10:00 +23°C° 0 mm 4 mps 712 mmHg 65%
11:00 +26°C° 0 mm 4 mps 712 mmHg 59%
12:00 +27°C° 0 mm 4 mps 712 mmHg 52%
13:00 +28°C° 0 mm 5 mps 712 mmHg 46%
14:00 +27°C° 0 mm 4 mps 712 mmHg 48%
15:00 +27°C° 0 mm 4 mps 712 mmHg 51%
16:00 +26°C° 0 mm 4 mps 712 mmHg 54%
17:00 +25°C° 0 mm 3 mps 712 mmHg 57%
18:00 +24°C° 0 mm 2 mps 712 mmHg 61%
19:00 +23°C° 0 mm 1 mps 712 mmHg 64%
20:00 +22°C° 0 mm 1 mps 713 mmHg 65%
21:00 +21°C° 0 mm 1 mps 713 mmHg 65%
22:00 +19°C° 0 mm 0 mps 713 mmHg 66%
23:00 +19°C° 0 mm 1 mps 713 mmHg 70%

2 August, Monday

Time Temperature Precipitation Wind Pressure Humidity
00:00 +18°C° 0 mm 1 mps 713 mmHg 74%
01:00 +16°C° 0 mm 1 mps 713 mmHg 78%
02:00 +16°C° 0 mm 1 mps 713 mmHg 79%
03:00 +15°C° 0 mm 1 mps 714 mmHg 79%
04:00 +15°C° 0 mm 1 mps 714 mmHg 80%
05:00 +18°C° 0 mm 1 mps 714 mmHg 75%
06:00 +19°C° 0 mm 1 mps 714 mmHg 70%
07:00 +21°C° 0 mm 1 mps 715 mmHg 65%
08:00 +23°C° 0 mm 1 mps 715 mmHg 58%
09:00 +24°C° 0 mm 1 mps 715 mmHg 50%
10:00 +26°C° 0 mm 2 mps 715 mmHg 43%
11:00 +27°C° 0 mm 2 mps 715 mmHg 41%
12:00 +28°C° 0 mm 2 mps 715 mmHg 38%
13:00 +29°C° 0 mm 3 mps 715 mmHg 36%
14:00 +29°C° 0 mm 3 mps 715 mmHg 36%
15:00 +29°C° 0 mm 3 mps 715 mmHg 37%
16:00 +29°C° 0 mm 3 mps 715 mmHg 37%
17:00 +27°C° 0 mm 3 mps 715 mmHg 45%
18:00 +25°C° 0 mm 2 mps 715 mmHg 54%
19:00 +24°C° 0 mm 2 mps 715 mmHg 62%
20:00 +22°C° 0 mm 1 mps 715 mmHg 63%
21:00 +21°C° 0 mm 1 mps 715 mmHg 65%
22:00 +18°C° 0 mm 0 mps 714 mmHg 66%
23:00 +17°C° 0 mm 0 mps 715 mmHg 68%

3 August, Tuesday

Time Temperature Precipitation Wind Pressure Humidity
00:00 +17°C° 0 mm 0 mps 715 mmHg 69%
01:00 +16°C° 0 mm 0 mps 715 mmHg 70%
02:00 +18°C° 0 mm 1 mps 715 mmHg 71%
03:00 +18°C° 0 mm 1 mps 715 mmHg 72%
04:00 +18°C° 0 mm 1 mps 715 mmHg 72%
05:00 +19°C° 0 mm 1 mps 715 mmHg 68%
06:00 +21°C° 0 mm 1 mps 715 mmHg 64%
07:00 +23°C° 0 mm 1 mps 716 mmHg 60%
08:00 +25°C° 0 mm 1 mps 716 mmHg 54%
09:00 +27°C° 0 mm 1 mps 716 mmHg 47%
10:00 +29°C° 0 mm 1 mps 716 mmHg 41%
11:00 +30°C° 0 mm 2 mps 716 mmHg 37%
12:00 +31°C° 0 mm 2 mps 716 mmHg 33%
13:00 +32°C° 0 mm 2 mps 716 mmHg 29%
14:00 +32°C° 0 mm 2 mps 716 mmHg 29%
15:00 +32°C° 0 mm 2 mps 716 mmHg 29%
16:00 +32°C° 0 mm 2 mps 715 mmHg 29%
17:00 +31°C° 0 mm 1 mps 715 mmHg 37%
18:00 +29°C° 0 mm 1 mps 715 mmHg 45%
19:00 +25°C° 0 mm 0 mps 715 mmHg 53%
20:00 +23°C° 0 mm 0 mps 715 mmHg 55%
21:00 +24°C° 0 mm 1 mps 715 mmHg 56%
22:00 +22°C° 0 mm 1 mps 715 mmHg 58%
23:00 +22°C° 0 mm 1 mps 715 mmHg 59%
Show more

We Need Your Consent

Meteoprog and our Service Providers may store and access personal data such as cookies, device identifiers or other similar technologies on your device and process such data to personalise content and ads, as well as provide social media features and to analyse the traffic.

  • Store and/or access information on your device

    Cookies, device identifiers or other information can be stored or accessed on your device for the purposes indicated above.

  • Personalised ads and content, ad and content measurement, audience insights, and products development

    Ads and content can be personalised based on a profile. More data can be added to better personalise ads and content. Ad and content performance can be measured. Insights about the audience who saw the ads and content can be derived. Such data can be used to develop or improve user’s experience, systems and software.

By clicking ‘I Agree’ you will allow the use of indicated cookies, device identifiers, web beacons or other similar technologies. Your settings can be changed in the browser on your device.

For certain purposes, legitimate interests may be relied on, rather than consent. You can read more about this in our Privacy and Cookie Policy.